Stations météo

réclame
Mon MeteoGroup
Florennes, Belgique (6456): Température de l'air & dewpoint: 12.02.2019 17:00:00 - 18.02.2019 17:00:00 (CET)Florennes, Belgique (6456): Vitesse du vent & gusts: 12.02.2019 17:00:00 - 18.02.2019 17:00:00 (CET)Florennes, Belgique (6456): Direction du vent: 12.02.2019 17:00:00 - 18.02.2019 17:00:00 (CET)Florennes, Belgique (6456): reduced air pressure: 12.02.2019 17:00:00 - 18.02.2019 17:00:00 (CET)Florennes, Belgique (6456): visibility: 12.02.2019 17:00:00 - 18.02.2019 17:00:00 (CET)
Date & Time tt [°C] td [°C] ff [km/h] ff [knt] fx [km/h] fx [knt] dd ppp [hPa] vv [km]
18.02.2019 17:00:00 11,7 0,6 14 8 25 14 S 1016,5 20
18.02.2019 16:00:00 12,8 0,0 18 10 - - S 1016,3 20
18.02.2019 15:00:00 13,8 -0,8 18 10 22 12 SSE 1016,2 20
18.02.2019 14:00:00 13,7 -0,3 11 6 18 10 S 1016,7 20
18.02.2019 13:00:00 12,7 -0,1 11 6 - - S 1017,6 20
18.02.2019 12:00:00 11,4 0,0 14 8 25 14 S 1018,5 20
18.02.2019 11:00:00 9,6 -0,4 14 8 22 12 S 1019,0 20
18.02.2019 10:00:00 7,3 -0,7 7 4 - - SSE 1019,6 20
18.02.2019 09:00:00 6,5 -0,8 4 2 11 6 N 1019,7 20
18.02.2019 08:00:00 6,1 -1,3 7 4 14 8 E 1019,8 20
18.02.2019 07:00:00 6,0 -1,7 7 4 - - SSE 1019,8 20
18.02.2019 06:00:00 5,9 -2,2 2 1 7 4 - 1020,1 10
18.02.2019 05:00:00 6,8 -2,4 4 2 14 8 - 1020,0 20
18.02.2019 04:00:00 6,9 -2,5 7 4 - - S 1020,2 20
18.02.2019 03:00:00 7,4 -2,7 4 2 11 6 N 1020,6 20
18.02.2019 02:00:00 7,5 -3,5 7 4 11 6 S 1020,7 20
18.02.2019 01:00:00 8,5 -3,8 7 4 - - S 1020,7 20
18.02.2019 00:00:00 8,7 -3,4 11 6 14 8 S 1020,7 20
17.02.2019 23:00:00 9,1 -3,0 11 6 14 8 S 1020,7 20
17.02.2019 22:00:00 9,2 -3,0 7 4 - - S 1021,1 20
17.02.2019 21:00:00 10,2 -3,1 11 6 14 8 S 1020,7 20
17.02.2019 20:00:00 10,4 -3,6 11 6 18 10 S 1020,7 20
17.02.2019 19:00:00 10,6 -3,9 14 8 - - S 1020,3 20
17.02.2019 18:00:00 12,5 -4,0 14 8 29 16 S 1019,7 20
17.02.2019 17:00:00 14,0 -3,3 18 10 29 16 S 1019,3 20
17.02.2019 16:00:00 14,6 -4,0 22 12 - - S 1019,6 20
17.02.2019 15:00:00 14,3 -3,7 22 12 32 18 SSW 1020,1 20
17.02.2019 14:00:00 14,3 -2,0 14 8 36 19 S 1020,2 20
17.02.2019 13:00:00 13,8 -2,2 22 12 - - S 1020,6 20
17.02.2019 12:00:00 11,8 -1,6 18 10 29 16 S 1021,1 20
17.02.2019 11:00:00 9,7 0,1 14 8 22 12 S 1021,7 19
17.02.2019 10:00:00 6,8 0,8 7 4 - - ENE 1022,2 16
17.02.2019 09:00:00 5,6 0,3 7 4 14 8 SSE 1022,7 18
17.02.2019 08:00:00 3,5 0,2 7 4 11 6 ESE 1023,1 13
17.02.2019 07:00:00 3,7 0,0 4 2 - - N 1023,1 13
17.02.2019 06:00:00 4,0 0,4 7 4 11 6 SE 1023,5 12
17.02.2019 05:00:00 5,1 0,7 7 4 11 6 SE 1023,6 16
17.02.2019 04:00:00 4,3 -0,3 4 2 - - N 1024,2 17
17.02.2019 03:00:00 7,1 1,0 7 4 11 6 SSE 1024,2 20
17.02.2019 02:00:00 7,0 1,3 7 4 14 8 SSE 1024,7 18
17.02.2019 01:00:00 8,3 1,0 7 4 - - S 1024,7 20
17.02.2019 00:00:00 8,0 0,3 4 2 7 4 N 1025,2 20
16.02.2019 23:00:00 7,3 0,6 4 2 7 4 N 1025,7 20
16.02.2019 22:00:00 8,2 -0,2 4 2 - - N 1025,7 20
16.02.2019 21:00:00 8,5 0,7 4 2 11 6 N 1025,7 20
16.02.2019 20:00:00 9,6 0,2 7 4 14 8 S 1025,7 20
16.02.2019 19:00:00 10,5 0,3 11 6 - - S 1026,0 20
16.02.2019 18:00:00 11,6 0,2 7 4 11 6 SW 1025,7 20
16.02.2019 17:00:00 13,4 0,3 7 4 14 8 SW 1025,7 20
16.02.2019 16:00:00 14,1 -0,5 11 6 - - WSW 1025,9 20
16.02.2019 15:00:00 14,6 -0,4 11 6 22 12 SSW 1026,0 20
16.02.2019 14:00:00 14,3 -0,3 14 8 22 12 SSW 1026,2 20
16.02.2019 13:00:00 13,2 -0,4 11 6 - - SW 1026,7 20
16.02.2019 12:00:00 11,2 0,3 11 6 22 12 SW 1027,2 19
16.02.2019 11:00:00 9,2 0,7 7 4 22 12 S 1027,4 19
16.02.2019 10:00:00 7,1 0,1 14 8 - - SSW 1027,5 20
16.02.2019 09:00:00 5,6 -0,4 14 8 18 10 S 1027,7 19
16.02.2019 08:00:00 5,0 -0,7 7 4 18 10 S 1027,2 20
16.02.2019 07:00:00 5,2 -0,8 7 4 - - S 1027,0 20
16.02.2019 06:00:00 5,8 -0,8 7 4 14 8 S 1026,9 20
16.02.2019 05:00:00 5,2 -0,9 4 2 11 6 N 1027,4 20
16.02.2019 04:00:00 5,9 -0,9 4 2 - - N 1027,2 20
16.02.2019 03:00:00 6,9 -1,1 4 2 11 6 N 1027,4 20
16.02.2019 02:00:00 4,5 -1,4 7 4 11 6 N 1028,0 20
16.02.2019 01:00:00 4,9 -1,5 4 2 - - N 1028,0 20
16.02.2019 00:00:00 7,0 -1,2 7 4 7 4 E 1027,7 20
15.02.2019 23:00:00 8,5 -1,1 4 2 14 8 N 1027,7 20
15.02.2019 22:00:00 9,5 -1,4 7 4 - - SSE 1028,0 20
15.02.2019 21:00:00 9,7 -1,9 4 2 11 6 N 1028,2 20
15.02.2019 20:00:00 10,1 -2,2 4 2 7 4 N 1028,4 20
15.02.2019 19:00:00 10,8 -2,8 4 2 - - N 1028,4 20
15.02.2019 18:00:00 13,4 -2,7 7 4 11 6 S 1028,0 20
15.02.2019 17:00:00 15,0 -1,5 7 4 14 8 S 1027,7 20
15.02.2019 16:00:00 15,8 -2,1 11 6 - - SE 1028,2 20
15.02.2019 15:00:00 15,4 -1,8 7 4 18 10 SSE 1029,0 20
15.02.2019 14:00:00 14,6 -1,7 11 6 22 12 SSE 1029,9 20
15.02.2019 13:00:00 13,8 -1,3 14 8 - - S 1030,5 20
15.02.2019 12:00:00 12,3 -1,5 11 6 22 12 SSE 1031,2 20
15.02.2019 11:00:00 11,0 -2,2 11 6 14 8 SSE 1031,5 20
15.02.2019 10:00:00 8,6 -2,5 11 6 - - SSE 1032,0 20
15.02.2019 09:00:00 6,6 -2,7 7 4 14 8 SE 1032,4 20
15.02.2019 08:00:00 5,3 -3,2 11 6 14 8 ESE 1032,4 20
15.02.2019 07:00:00 4,3 -3,5 7 4 - - ESE 1032,5 20
15.02.2019 06:00:00 5,1 -3,3 4 2 14 8 N 1032,7 20
15.02.2019 05:00:00 5,1 -2,8 7 4 14 8 SE 1032,7 20
15.02.2019 04:00:00 4,7 -3,2 11 6 - - ESE 1032,9 20
15.02.2019 03:00:00 5,3 -2,7 7 4 14 8 ESE 1033,0 20
15.02.2019 02:00:00 6,6 -2,7 7 4 14 8 ESE 1033,2 20
15.02.2019 01:00:00 7,2 -2,7 7 4 - - E 1033,2 20
15.02.2019 00:00:00 8,0 -3,0 14 8 22 12 SSE 1033,0 20
14.02.2019 23:00:00 7,5 -3,7 11 6 22 12 SE 1033,4 20
14.02.2019 22:00:00 7,5 -3,3 11 6 - - SE 1033,4 20
14.02.2019 21:00:00 8,5 -2,2 11 6 18 10 SE 1033,2 20
14.02.2019 20:00:00 8,2 -2,0 11 6 14 8 SE 1033,7 20
14.02.2019 19:00:00 8,7 -2,3 7 4 - - ESE 1033,7 20
14.02.2019 18:00:00 10,9 -2,2 7 4 11 6 SE 1033,2 20
14.02.2019 17:00:00 13,3 -2,1 4 2 11 6 N 1033,0 20
14.02.2019 16:00:00 13,6 -1,8 11 6 - - SSE 1033,5 20
14.02.2019 15:00:00 13,2 0,5 7 4 14 8 SSE 1033,7 20
14.02.2019 14:00:00 12,1 -0,8 11 6 14 8 SE 1034,5 20
14.02.2019 13:00:00 10,8 -0,2 4 2 - - N 1035,2 20
14.02.2019 12:00:00 9,0 -1,2 7 4 11 6 ENE 1035,7 20
14.02.2019 11:00:00 6,5 -0,9 4 2 7 4 N 1036,0 20
14.02.2019 10:00:00 3,2 -1,9 4 2 - - N 1036,9 20
14.02.2019 09:00:00 1,9 -2,7 7 4 11 6 ESE 1036,9 20
14.02.2019 08:00:00 1,5 -2,8 4 2 7 4 N 1036,5 20
14.02.2019 07:00:00 2,7 -2,5 4 2 - - N 1035,9 20
14.02.2019 06:00:00 2,2 -2,5 4 2 7 4 N 1036,0 20
14.02.2019 05:00:00 0,3 -2,9 7 4 7 4 N 1036,2 20
14.02.2019 04:00:00 1,1 -2,4 4 2 - - N 1036,4 20
14.02.2019 03:00:00 1,6 -2,5 7 4 7 4 ESE 1036,2 20
14.02.2019 02:00:00 2,2 -3,4 4 2 7 4 N 1036,0 20
14.02.2019 01:00:00 2,7 -3,4 4 2 - - N 1036,4 20
14.02.2019 00:00:00 1,1 -3,0 4 2 11 6 N 1036,5 20
13.02.2019 23:00:00 2,1 -4,3 7 4 14 8 SSE 1036,7 20
13.02.2019 22:00:00 3,6 -2,4 4 2 - - - 1036,5 20
13.02.2019 21:00:00 1,8 -1,7 4 2 4 2 N 1036,7 20
13.02.2019 20:00:00 3,0 -1,5 4 2 7 4 N 1036,5 20
13.02.2019 19:00:00 4,3 -0,7 4 2 - - N 1036,4 20
13.02.2019 18:00:00 5,5 -0,2 4 2 7 4 N 1036,4 20
13.02.2019 17:00:00 6,6 -0,2 7 4 11 6 S 1036,0 20
13.02.2019 16:00:00 6,4 0,1 11 6 - - SSW 1036,0 20
13.02.2019 15:00:00 6,3 -0,2 11 6 14 8 SSW 1036,5 20
13.02.2019 14:00:00 5,5 0,8 11 6 14 8 S 1037,0 20
13.02.2019 13:00:00 4,5 0,1 11 6 - - SSW 1037,2 20
13.02.2019 12:00:00 3,2 0,5 7 4 18 10 S 1038,0 20
13.02.2019 11:00:00 1,9 -0,6 4 2 11 6 N 1038,0 15
13.02.2019 10:00:00 1,2 -0,4 7 4 - - SSE 1038,2 15
13.02.2019 09:00:00 0,0 -0,6 4 2 4 2 N 1038,2 10
13.02.2019 08:00:00 -1,3 -2,2 4 2 7 4 N 1038,0 20
13.02.2019 07:00:00 -0,5 -1,3 4 2 - - N 1037,7 20
13.02.2019 06:00:00 -0,8 -1,1 4 2 7 4 N 1037,9 12
13.02.2019 05:00:00 -0,7 -0,9 7 4 14 8 S 1037,9 1,9
13.02.2019 04:00:00 -0,5 -0,5 7 4 - - SSW 1038,2 0,2
13.02.2019 03:00:00 -0,5 -0,5 4 2 14 8 N 1038,7 0,2
13.02.2019 02:00:00 -0,5 -0,6 7 4 14 8 SSW 1038,0 0,3
13.02.2019 01:00:00 -0,6 -0,9 4 2 - - N 1038,2 0,5
13.02.2019 00:00:00 -0,3 -0,9 4 2 18 10 N 1037,9 2,1
12.02.2019 23:00:00 0,5 -0,3 11 6 14 8 SSW 1037,7 6
12.02.2019 22:00:00 0,3 -0,4 8 4 - - S 1037,9 4,9
12.02.2019 21:00:00 1,0 -0,2 4 2 22 12 - 1037,7 10
12.02.2019 20:00:00 1,5 -0,1 14 8 22 12 S 1037,4 20
12.02.2019 19:00:00 2,3 0,2 11 6 - - S 1037,4 25
12.02.2019 18:00:00 3,2 0,2 11 6 18 10 SW 1036,9 25
12.02.2019 17:00:00 4,4 0,8 14 8 22 12 SSW 1036,5 25

tt = Température de l'air
td = dewpoint
ff = Vitesse du vent
fx = gusts
dd = Direction du vent
ppp = reduced air pressure
vv = visibility

stations d'obs. à proximité